VAXJO current weather conditions

sailwx.info

Wind from 300 at 3 knots

Air temperature -0.0° C
Visibility: greater than 5.4 NM
Dewpoint -0.0° C
Present weather: Light snow.

Last reported at 2016-Feb-11 23:20 UTC.
Time now 2016-Feb-12 01:21 UTC

Location: N 56°51' E 014°50'.
View on Google Maps.

See reports from other nearby stations

  
Tides and Currents Weather Stations Pressure Air Temp Water Temp Dewpoint Dewpoint Depression Visibility Wind Speed Wind Dir Waves Ship Positions
date/time (UTC)wind fromknots sea level pressurealtimeterstation pressurevisibilityair tempwater tempwave heightnotes
2016-Feb-12 00:20 290 3 5.4-0.0 Light snow.
2016-Feb-11 23:50 310 4 5.4-0.0 Light snow.
2016-Feb-11 23:20 300 3 5.4-0.0 Light snow.
2016-Feb-11 22:50 320 4 5.4-0.0
2016-Feb-11 22:20 320 3 4.3-0.0 Light snow.
2016-Feb-11 21:50 320 3 3.2-0.0 Light snow.
2016-Feb-11 21:20 300 3 3.8 1.0 Light snow.
2016-Feb-11 20:50 300 3 5.4 1.0 Light rain.
2016-Feb-11 20:20 320 3 5.4 1.0 Light snow.
2016-Feb-11 19:50 310 3 5.4 1.0 Light snow.
2016-Feb-11 19:20 290 4 5.4 1.0
2016-Feb-11 18:50 310 4 5.4 1.0
2016-Feb-11 18:20 320 3 5.4 1.0
2016-Feb-11 17:50 310 3 5.4 1.0
2016-Feb-11 17:20 340 4 5.4 1.0
2016-Feb-11 16:50 340 5 5.4 1.0
2016-Feb-11 16:20 320 4 5.4 2.0
2016-Feb-11 15:50 320 8 4.9 2.0
2016-Feb-11 15:20 320 4 5.4 2.0 Light drizzle.
2016-Feb-11 14:50 290 4 3.8 2.0 Light rain.
2016-Feb-11 14:20 280 7 2.7 2.0 Light snow.
2016-Feb-11 13:50 310 4 5.4 3.0
2016-Feb-11 13:20 320 6 5.4 3.0
2016-Feb-11 12:50 320 7 5.4 3.0
2016-Feb-11 12:20 300 6 5.4 3.0
2016-Feb-11 11:50 330 5 5.4 3.0
2016-Feb-11 11:20 350 4 5.4 2.0
2016-Feb-11 10:50 350 5 5.4 2.0 Light drizzle.
2016-Feb-11 10:20 350 5 5.4 2.0 Light drizzle.
2016-Feb-11 09:50 320 5 5.4 2.0
2016-Feb-11 09:20 290 4 2.2 2.0 Mist.
2016-Feb-11 08:50 280 4 2.2 2.0 Mist.
2016-Feb-11 08:20 260 4 2.2 2.0 Mist.
2016-Feb-11 07:50 240 4 1.6 2.0 Mist.
2016-Feb-11 07:20 220 4 1.3 2.0 Mist.
2016-Feb-11 06:50 230 4 1.6 2.0 Mist.
2016-Feb-11 06:20 240 4 2.7 2.0 Mist.
2016-Feb-11 05:50 220 4 2.5 2.0 Mist.
2016-Feb-11 05:20 230 5 2.5 2.0 Light drizzle.
2016-Feb-11 04:50 230 5 2.7 2.0 Light drizzle.
2016-Feb-11 04:20 230 5 2.6 2.0 Drizzle.
2016-Feb-11 03:50 230 5 3.8 2.0 Light drizzle.
2016-Feb-11 03:20 230 6 4.3 2.0 Mist.
2016-Feb-11 02:50 220 5 3.2 2.0 Light drizzle.
2016-Feb-11 02:20 220 5 5.4 2.0
2016-Feb-11 01:50 220 5 5.4 2.0
2016-Feb-11 01:20 230 5 5.4 2.0 Light drizzle.
2016-Feb-11 00:50 210 5 5.4 2.0
2016-Feb-11 00:20 210 4 5.4 2.0
2016-Feb-10 23:50 210 5 5.4 2.0
2016-Feb-10 23:20 210 6 5.4 2.0
2016-Feb-10 22:50 190 6 5.4 2.0
2016-Feb-10 22:20 210 6 4.9 2.0
2016-Feb-10 21:50 190 6 4.9 2.0 Mist.
2016-Feb-10 21:20 200 5 4.9 2.0 Mist.
2016-Feb-10 20:50 210 6 5.4 2.0
2016-Feb-10 20:20 210 6 5.4 2.0
2016-Feb-10 19:50 210 7 5.4 2.0 Light drizzle.
2016-Feb-10 19:20 220 6 5.4 2.0
2016-Feb-10 18:50 240 7 5.4 2.0
2016-Feb-10 18:20 230 9 5.4 2.0
2016-Feb-10 17:50 220 7 5.4 3.0
2016-Feb-10 17:20 210 7 5.4 2.0
2016-Feb-10 16:50 230 7 5.4 2.0
2016-Feb-10 16:20 250 8 5.4 2.0
2016-Feb-10 15:50 230 10 5.4 2.0
2016-Feb-10 15:20 240 10 5.4 2.0
2016-Feb-10 14:50 250 10 5.4 2.0
2016-Feb-10 14:20 250 10 5.4 2.0
2016-Feb-10 13:50 250 10 4.3 2.0 Mist.
2016-Feb-10 13:20 260 11 5.4 2.0
2016-Feb-10 12:50 240 10 5.4 2.0 Light rain.
2016-Feb-10 12:20 250 9 2.7 2.0 Rain snow.
2016-Feb-10 11:50 250 10 2.4 2.0 Mist.
2016-Feb-10 11:20 250 10 2.7 2.0 Mist.
2016-Feb-10 10:50 240 10 3.2 2.0 Mist.
2016-Feb-10 10:20 220 12 5.4 3.0
2016-Feb-10 09:50 200 10 3.2 4.0 Rain.
2016-Feb-10 09:20 160 8 3.8 4.0 Rain.
2016-Feb-10 08:50 160 6 2.4 4.0 Drizzle.
2016-Feb-10 08:20 150 6 5.4 4.0
2016-Feb-10 07:50 160 3 4.9 4.0 Light drizzle.
2016-Feb-10 07:20 3.2 3.0 Light drizzle.
2016-Feb-10 06:50 020 3 3.8 3.0 Rain.
2016-Feb-10 06:20 020 4 4.3 2.0 Light rain.
2016-Feb-10 05:50 030 3 1.9 2.0 Rain.
2016-Feb-10 05:20 060 4 4.3 2.0 Light rain.
2016-Feb-10 04:50 040 7 3.2 2.0 Rain.
2016-Feb-10 04:20 040 10 4.3 1.0 Light rain.
2016-Feb-10 03:50 040 8 5.4 1.0 Light drizzle.
2016-Feb-10 03:20 050 8 1.9 1.0 Light snow.
2016-Feb-10 02:50 040 6 2.4 2.0 Rain.
2016-Feb-10 02:20 040 7 5.4 2.0 Light rain.
2016-Feb-10 01:50 040 7 3.2 2.0 Light rain.
2016-Feb-10 01:20 070 5 5.4 2.0 Drizzle.